STARLINK-36627, 67635

Orbit data source: Space-Track

STARLINK-36627, 67635 is a payload satellite owned by SpaceX/Seattle (US) in LEO that was launched on Fri, 30 Jan 2026 UTC via an FALCON 9 launch vehicle from the Air Force Eastern Test Range (AFETR). Payload-class satellites include a variety of spacecraft equipped with specific instruments for various scientific and technological missions. These include communications satellites like Starlink; space stations such as the ISS; scientific satellites like the Hubble; Earth observation satellites from companies like Planet Labs, Umbra, and HawkEye 360; GPS; miniature CubeSats for education and research; and military/defense satellites.

Loading next visibility...
Identifier
67635, 2026-020U
Orbit
LEO
Country
Flag of USUS
Related business
Manufacturer
SpaceX/Seattle
Mission
Operational Commercial Communications
Bus & Motor
STARLINK V2MO, Unknown motor
Mass
575 kg wet, ~530 kg dry
Launch date (UTC)
2026-01-30 (3 months ago)
Launch vehicle
FALCON 9
Launch site
Air Force Eastern Test Range (AFETR)
Object type
Payload
Rocket body
Debris
Shape & HBR
Box + 2 Pan, 17.7 m
Radar Cross Section
36.964 m²

Expand to show TLE details & history
Last TLE update: 19 hours ago

TLE from 19 hours ago
0 STARLINK-36627
1 67635U 26020U   26111.70488050  .00016846  00000-0  61990-3 0  9993
2 67635  43.0012 256.7245 0000433 310.4846  49.5968 15.27600052 12693
Epoch: 2026-04-21T16:55Z
TLE epoch observation values (Epoch: 2026-04-21T16:55:01.675Z)
Latitude
Longitude
153.19069°
Altitude
482.572 km
Speed
7.626 km/s
True Right ascension
17h 06m 53s
True Declination
0° 00' 00"
Sunlit
Object was in full shadow at epoch
Visualization orbit readout
Latitude
Unknown
Longitude
Unknown
Altitude
Unknown
Speed
Unknown
Apparent Right ascension
Unknown
Apparent Declination
Unknown
Sunlit
N/A
Visualization observer readout
Local Sidereal Time
19:04:29
Azimuth
Unknown
Elevation
Unknown
Doppler factor
Unknown
Orbital elements
Apogee altitude
485.231 km
Perigee altitude
484.637 km
Semi-major axis
6,863.071 km
Eccentricity
0.00004
Inclination
43.0012°
RAAN
256.7245°
Arg. of periapsis
310.4846°
True anomaly
49.60058°
Mean anomaly
49.5968°
Eccentric anomaly
49.59869°
Mean motion
3.81738 °/min
Orbital period
94.31 mins
BSTAR
0.0006199
Loading maneuver chart data...
Computing Atmospheric mass density...
Loading historical data...
Loading historical data...
Loading historical data...
Loading historical data...
Loading historical data...
Loading historical data...
Loading historical data...

Documentation

Showing up to 5 results
|